[[{"header":{"parameterUnit":"m.s-1","parameterCategory":1,"la1":30.2991,"la2":30.254,"lo1":-89.0895,"lo2":-89.0444,"dy":0.0017,"dx":0.0017,"nx":28,"ny":28,"refTime":"2024-05-22T21:00:00:Z","depth":0,"parameterNumber":2,"parameterNumberName":"U-component_of_WINDS"},"data":[0,0,0,0,0,0,0,0,0,0,0,0,0,0,0,0,0,0,0,0,0,0,0,0,0,0,0,0,0,0,0,0,0,0,0,0,0,0,0,0,0,0,0,0,0,0,0,0,0,0,0,0,0,0,0,0,0,0,0.6934,0.6935,0,0.7048,0.705,0.7051,0.7078,0.7077,0.7076,0.7075,0.7193,0.7197,0.7201,0,0,0,0,0,0,0,0,0,0,0,0,0,0.6739,0.6742,0.6933,0.6935,0.6936,0.7048,0.705,0.7051,0.7078,0.7077,0.7076,0.7075,0.7192,0.7197,0.7201,0,0,0,0,0,0,0,0,0,0,0,0,0,0.6835,0.6743,0.6933,0.6963,0.6967,0.7048,0.705,0.7052,0.7078,0.7077,0.7075,0.7074,0.7191,0.7196,0.7202,0.7262,0,0,0.722,0.7222,0,0,0,0,0,0,0,0,0.683,0.6842,0.6957,0.6961,0.6965,0.7047,0.7024,0.7122,0.7078,0.7036,0.7075,0.7074,0.7146,0.7155,0.7179,0.7267,0.7272,0.722,0.7224,0.7226,0.7228,0,0,0,0,0,0,0,0.6823,0.6838,0.6979,0.6959,0.6964,0.6971,0.6983,0.7043,0.7096,0.7039,0.7041,0.7055,0.7148,0.7174,0.7182,0.7274,0.722,0.7225,0.7229,0.7231,0.7418,0.7419,0,0,0,0,0,0,0.6811,0.6832,0.6975,0.6982,0.6893,0.6976,0.6989,0.7022,0.7095,0.7105,0.7056,0.7056,0.7164,0.7176,0.7187,0.7262,0.7226,0.7232,0.7235,0.7416,0.7418,0.742,0,0,0,0,0,0,0.6807,0.6823,0.6971,0.6908,0.6927,0.698,0.7017,0.7025,0.7051,0.7108,0.7117,0.7072,0.7164,0.7178,0.7243,0.7266,0.7234,0.724,0.7415,0.7417,0.7419,0.7412,0,0,0,0,0,0,0.6801,0.6822,0.6844,0.6908,0.693,0.7025,0.7018,0.7028,0.7061,0.7062,0.7126,0.7135,0.7164,0.7234,0.7249,0.7274,0.7244,0.7413,0.7416,0.7418,0.7411,0.7414,0.7417,0,0,0,0,0,0.6794,0.6838,0.6845,0.6863,0.696,0.7026,0.7039,0.7071,0.7063,0.7086,0.7123,0.7133,0.7262,0.7241,0.7257,0.7284,0.7412,0.7415,0.7418,0.7409,0.7413,0.7417,0,0,0,0,0,0,0.6776,0.6847,0.6856,0.6922,0.6968,0.703,0.7061,0.7074,0.7123,0.7122,0.716,0.7174,0.7236,0.7267,0.7242,0.7347,0.7336,0.7343,0.7324,0.7328,0.7331,0.7322,0.7249,0,0,0,0,0,0.6779,0.6827,0.6886,0.6939,0.6961,0.7007,0.7037,0.7058,0.7107,0.7126,0.7168,0.7215,0.7266,0.7299,0.7349,0.7416,0.743,0.7443,0.7446,0.7448,0.7453,0.7491,0.7497,0.7431,0.7431,0.7431,0,0,0.6787,0.6832,0.6859,0.6936,0.6974,0.7023,0.7023,0.7074,0.7111,0.7134,0.7198,0.723,0.7286,0.7351,0.7383,0.7379,0.7475,0.7452,0.7453,0.7457,0.7495,0.7501,0.7507,0.7433,0.7433,0.7432,0,0,0.6826,0.6865,0.6913,0.6951,0.7009,0.7039,0.7051,0.7112,0.7134,0.7199,0.7217,0.7262,0.7349,0.7388,0.7419,0.7475,0.7486,0.749,0.7506,0.7543,0.7548,0.7553,0.7573,0.7579,0.7495,0.7495,0.7495,0,0.6829,0.6902,0.6936,0.6987,0.702,0.7044,0.7093,0.7129,0.72,0.7223,0.7218,0.7328,0.7368,0.7443,0.7457,0.7481,0.7496,0.7483,0.7544,0.755,0.7555,0.7574,0.7581,0.7495,0.7495,0.7495,0.7495,0,0.6903,0.6954,0.6986,0.7054,0.7091,0.7141,0.7183,0.7217,0.7235,0.7266,0.7332,0.738,0.744,0.746,0.7478,0.7539,0.7535,0.7537,0.7527,0.756,0.7579,0.7587,0.7496,0.7496,0.7496,0.7496,0,0,0.6932,0.7019,0.703,0.7062,0.7128,0.7168,0.7219,0.7279,0.7307,0.7356,0.74,0.7474,0.7477,0.7512,0.7535,0.7567,0.7609,0.7566,0.7568,0.7572,0.7679,0.7677,0.7685,0.7617,0.7619,0.762,0.7674,0,0.6979,0.7071,0.7103,0.7179,0.7227,0.7251,0.7296,0.7342,0.7373,0.7419,0.7453,0.7505,0.7504,0.7526,0.7559,0.7597,0.7631,0.7593,0.7659,0.7661,0.7643,0.7695,0.7692,0.7741,0.7682,0.7683,0.7684,0,0.7045,0.7095,0.7176,0.7237,0.7258,0.7298,0.7355,0.7398,0.7451,0.7472,0.7512,0.7533,0.7589,0.7576,0.7654,0.7627,0.7657,0.7679,0.7682,0.7689,0.7674,0.7702,0.7757,0.7764,0.7696,0.7695,0.7694,0,0.7058,0.7146,0.7205,0.7232,0.7304,0.7332,0.7363,0.7415,0.7449,0.75,0.7522,0.7579,0.761,0.7653,0.7689,0.7677,0.7764,0.7754,0.7782,0.7781,0.7798,0.7797,0.7858,0.7818,0.7818,0.7818,0.7818,0,0.7107,0.7155,0.7212,0.7249,0.7304,0.7342,0.7396,0.7429,0.7475,0.7519,0.7544,0.7585,0.763,0.7678,0.7706,0.7766,0.778,0.7798,0.7805,0.7796,0.7793,0.7815,0.7812,0.782,0.7819,0.7819,0.7819,0,0.713,0.717,0.7237,0.7301,0.7318,0.7356,0.7411,0.7448,0.748,0.7536,0.7551,0.7603,0.7659,0.77,0.7773,0.7793,0.7857,0.7864,0.7839,0.7842,0.7868,0.7865,0.7944,0.7957,0.7909,0.7909,0.791,0,0.7157,0.7195,0.7264,0.7295,0.7326,0.7376,0.7411,0.7451,0.7486,0.755,0.758,0.7638,0.7687,0.7777,0.7821,0.7878,0.7886,0.791,0.7895,0.7884,0.7886,0.7883,0.7887,0.7912,0.7912,0.7913,0.7913,0,0.7203,0.7221,0.727,0.7327,0.7368,0.7415,0.7461,0.7486,0.7534,0.7572,0.7631,0.7669,0.7744,0.7802,0.7863,0.7897,0.7913,0.7918,0.7927,0.7917,0.7901,0.791,0.7845,0.7915,0.7915,0.7915,0.7915,0.7915,0.7229,0.7264,0.7317,0.7372,0.7411,0.7455,0.7493,0.7531,0.758,0.7644,0.7665,0.7726,0.7779,0.7863,0.7897,0.7946,0.7945,0.7958,0.7962,0.7964,0.7964,0.7894,0.7957,0.7957,0.7957,0.7957,0.7957,0,0.7275,0.7311,0.7361,0.7426,0.7469,0.7481,0.7534,0.7569,0.7622,0.7671,0.7718,0.7786,0.7843,0.7892,0.7952,0.7981,0.799,0.7995,0.7993,0.8001,0.7962,0.7947,0.7987,0.7987,0.7987,0.7987,0.7987,0.7987,0.7304,0.7364,0.7389,0.7469,0.7505,0.7565,0.7594,0.7635,0.7674,0.7748,0.7796,0.7827,0.7877,0.794,0.7993,0.8006,0.8027,0.803,0.8045,0.8007,0.8003,0.8,0.7987,0.8034,0.8034,0.808,0.808,0.8081]},{"header":{"parameterUnit":"m.s-1","parameterCategory":1,"la1":30.2991,"la2":30.254,"lo1":-89.0895,"lo2":-89.0444,"dy":0.0017,"dx":0.0017,"nx":28,"ny":28,"refTime":"2024-05-22T21:00:00:Z","depth":0,"parameterNumber":3,"parameterNumberName":"V-component_of_WINDS"},"data":[0,0,0,0,0,0,0,0,0,0,0,0,0,0,0,0,0,0,0,0,0,0,0,0,0,0,0,0,0,0,0,0,0,0,0,0,0,0,0,0,0,0,0,0,0,0,0,0,0,0,0,0,0,0,0,0,0,0,3.4622,3.4623,0,3.467,3.467,3.4671,3.4622,3.462,3.4618,3.4617,3.4662,3.4665,3.4668,0,0,0,0,0,0,0,0,0,0,0,0,0,3.4485,3.4488,3.4622,3.4623,3.4624,3.467,3.467,3.4671,3.4623,3.462,3.4618,3.4616,3.4661,3.4664,3.4668,0,0,0,0,0,0,0,0,0,0,0,0,0,3.454,3.4489,3.4622,3.4605,3.4604,3.467,3.467,3.4671,3.4623,3.462,3.4617,3.4615,3.466,3.4664,3.4668,3.4752,0,0,3.4682,3.4684,0,0,0,0,0,0,0,0,3.4537,3.4545,3.4607,3.4606,3.4605,3.4637,3.4639,3.4698,3.4624,3.4616,3.4617,3.4613,3.4656,3.466,3.4675,3.4755,3.4757,3.4682,3.4685,3.4687,3.4688,0,0,0,0,0,0,0,3.4533,3.4543,3.4641,3.4608,3.4607,3.4593,3.4598,3.465,3.4651,3.4616,3.4613,3.4619,3.4655,3.4671,3.4676,3.4757,3.4682,3.4686,3.4689,3.4691,3.4907,3.491,0,0,0,0,0,0,3.4532,3.454,3.4639,3.4642,3.4564,3.4598,3.4603,3.463,3.465,3.4651,3.4622,3.4617,3.4665,3.4671,3.4677,3.4777,3.4687,3.4691,3.4694,3.4904,3.4907,3.4911,0,0,0,0,0,0,3.4529,3.4541,3.4638,3.459,3.4602,3.4604,3.4634,3.4632,3.4649,3.4654,3.4654,3.4639,3.4663,3.4671,3.4734,3.4778,3.4693,3.4697,3.49,3.4905,3.4909,3.4977,0,0,0,0,0,0,3.4525,3.4541,3.4574,3.4592,3.4604,3.4695,3.4636,3.4635,3.4657,3.4651,3.467,3.4671,3.4661,3.4728,3.4739,3.4782,3.4701,3.4896,3.4902,3.4908,3.4971,3.4983,3.4994,0,0,0,0,0,3.4521,3.459,3.4576,3.4588,3.4646,3.4698,3.4705,3.4694,3.4661,3.4693,3.4697,3.467,3.4771,3.4735,3.4746,3.4792,3.4893,3.4901,3.4907,3.4965,3.4981,3.4994,0,0,0,0,0,0,3.4576,3.4592,3.4576,3.4654,3.4675,3.4689,3.473,3.471,3.4741,3.4734,3.4718,3.4722,3.4789,3.4797,3.4756,3.4874,3.4827,3.4836,3.4867,3.4881,3.4893,3.489,3.4704,0,0,0,0,0,3.4598,3.464,3.4651,3.4718,3.473,3.4728,3.475,3.474,3.4761,3.4769,3.4777,3.4797,3.4834,3.4858,3.4892,3.4971,3.4974,3.5008,3.502,3.5029,3.5038,3.508,3.5095,3.4933,3.4933,3.4933,0,0,3.4642,3.4656,3.4683,3.473,3.4745,3.4787,3.4736,3.4783,3.4815,3.4776,3.4836,3.4843,3.4864,3.4936,3.4968,3.4944,3.5083,3.5038,3.5046,3.5049,3.5089,3.5104,3.5118,3.4938,3.4937,3.4937,0,0,3.4745,3.476,3.4817,3.4834,3.4858,3.4856,3.487,3.4888,3.4891,3.4952,3.4924,3.4959,3.5022,3.5039,3.5055,3.5164,3.514,3.5175,3.5235,3.5277,3.5289,3.53,3.5339,3.5353,3.5183,3.5183,3.5183,0,3.4796,3.4861,3.4849,3.4899,3.492,3.4888,3.4945,3.4961,3.4994,3.5009,3.4982,3.506,3.5072,3.5147,3.5174,3.5188,3.5203,3.5173,3.5289,3.53,3.531,3.5346,3.5361,3.5187,3.5187,3.5187,3.5186,0,3.4923,3.4968,3.5012,3.5046,3.5072,3.5125,3.512,3.5147,3.5134,3.5135,3.5196,3.521,3.5245,3.5262,3.525,3.5335,3.532,3.5291,3.5243,3.533,3.5364,3.5377,3.5193,3.5192,3.5191,3.519,0,0,3.5063,3.509,3.5106,3.5121,3.5145,3.5179,3.523,3.5266,3.5289,3.5313,3.5355,3.5409,3.5382,3.5401,3.539,3.5426,3.5511,3.5393,3.5393,3.5414,3.5605,3.5627,3.5643,3.5495,3.5498,3.55,3.5603,0,3.5166,3.5257,3.5247,3.5333,3.5374,3.5344,3.5388,3.5407,3.5409,3.5443,3.5444,3.5483,3.5445,3.5456,3.5491,3.5493,3.5549,3.5486,3.5533,3.5535,3.5529,3.5661,3.5684,3.5781,3.5616,3.5619,3.562,0,3.5299,3.5329,3.5419,3.5437,3.5453,3.5494,3.5526,3.5559,3.5579,3.5578,3.5599,3.5581,3.5631,3.5582,3.565,3.5607,3.5626,3.563,3.5633,3.5638,3.5583,3.5668,3.5812,3.5826,3.5641,3.5639,3.5638,0,3.5392,3.5454,3.5516,3.553,3.5552,3.5581,3.5591,3.5608,3.563,3.5658,3.5672,3.5704,3.5722,3.5746,3.5738,3.5703,3.5807,3.5757,3.5807,3.5807,3.583,3.5829,3.5979,3.5842,3.5842,3.5842,3.5842,0,3.5509,3.5565,3.5559,3.5597,3.5658,3.5646,3.5707,3.5713,3.5729,3.5766,3.5741,3.5777,3.5763,3.5798,3.5791,3.5848,3.5856,3.5855,3.5853,3.5858,3.5858,3.587,3.5863,3.5846,3.5845,3.5844,3.5843,0,3.5623,3.5621,3.5687,3.5702,3.5707,3.5752,3.5764,3.5799,3.5799,3.5847,3.5858,3.5857,3.5896,3.589,3.5933,3.5928,3.6,3.5989,3.5993,3.5991,3.6041,3.6036,3.6203,3.6224,3.6074,3.6076,3.6077,0,3.5698,3.5741,3.5761,3.5785,3.5798,3.5837,3.5859,3.5848,3.5872,3.5898,3.593,3.5967,3.5996,3.606,3.6063,3.6095,3.6085,3.6141,3.6089,3.6093,3.6086,3.6083,3.6087,3.6151,3.6153,3.6155,3.6156,0,3.5831,3.5828,3.5862,3.5896,3.5924,3.595,3.5973,3.5994,3.5985,3.6013,3.6053,3.6076,3.612,3.6157,3.6188,3.6196,3.6174,3.6172,3.6185,3.6191,3.6192,3.6192,3.6021,3.6168,3.6167,3.6166,3.6165,3.6165,3.5928,3.5965,3.5985,3.6023,3.604,3.6062,3.6096,3.61,3.6134,3.617,3.6161,3.6206,3.6224,3.6263,3.6275,3.6309,3.6288,3.6307,3.6312,3.6317,3.6323,3.6186,3.6315,3.6314,3.6314,3.6313,3.6313,0,3.606,3.6071,3.6107,3.6141,3.6171,3.6149,3.6173,3.62,3.624,3.6259,3.6289,3.6335,3.637,3.6375,3.6409,3.6435,3.6426,3.6444,3.6442,3.6445,3.634,3.6325,3.6451,3.6451,3.6451,3.6451,3.6451,3.6451,3.6132,3.6193,3.6192,3.626,3.627,3.6316,3.6331,3.6351,3.6366,3.6419,3.6449,3.6452,3.6466,3.6499,3.653,3.6531,3.6544,3.6567,3.6563,3.6466,3.6452,3.6439,3.6425,3.657,3.657,3.6665,3.6666,3.6666]}]]